Regional Weather Roundup
Issued by NWS

Home | Current Version | Previous Version | Graphics & Text | Print | Product List | Glossary On
Versions: 1 2 3 4 5 6 7 8 9 10 11 12 13 14 15 16 17 18 19 20 21 22 23 24 25 26 27 28 29 30 31 32 33 34 35 36 37 38 39 40 41 42 43 44 45 46 47 48 49 50
773
ASUS45 KBOI 221110
RWRID

IDAHO REGIONAL WEATHER ROUNDUP
NATIONAL WEATHER SERVICE BOISE ID
500 AM MDT SAT JUL 22 2017

NOTE: "FAIR" INDICATES FEW OR NO CLOUDS BELOW 12000 FEET
WITH NO SIGNIFICANT WEATHER AND/OR OBSTRUCTIONS TO VISIBILITY

IDZ012-014-221200-
SOUTHWEST IDAHO


CITY           SKY/WX    TMP DP  RH WIND       PRES   REMARKS
BOISE          CLEAR     61  42  49 SW3       30.08R
CALDWELL       CLEAR     64  41  42 SW9       30.08R
MOUNTAIN HOME  CLEAR     65  40  39 NW10      30.08R
$$

IDZ016-017-221200-
SOUTHCENTRAL IDAHO


CITY           SKY/WX    TMP DP  RH WIND       PRES   REMARKS
BURLEY         CLEAR     53  44  71 S7        30.11R
JEROME         CLEAR     63  37  38 S3        30.12R
TWIN FALLS     CLEAR     63  36  36 S12       30.13R
$$

IDZ019>023-221200-
SOUTHEAST IDAHO


CITY           SKY/WX    TMP DP  RH WIND       PRES   REMARKS
IDAHO FALLS    CLEAR     48  45  89 W3        30.16R
POCATELLO      CLEAR     58  38  47 SE5       30.14R
REXBURG        CLEAR     51  43  74 E5        30.16R
$$

IDZ006-010-011-018-031-032-221200-
CENTRAL IDAHO MOUNTAINS


CITY           SKY/WX    TMP DP  RH WIND       PRES   REMARKS
MCCALL         CLEAR     50  38  63 SE3       30.22R
HAILEY         CLEAR     55  32  41 NW14      30.22R
STANLEY          N/A     37  30  75 CALM      30.34R
SALMON         NOT AVBL
CHALLIS        CLEAR     53  35  50 CALM      30.23R
$$

IDZ002-004-006-007-026-221200-
NORTHERN IDAHO


CITY           SKY/WX    TMP DP  RH WIND       PRES   REMARKS
LEWISTON       CLEAR     61  36  39 CALM      30.13R
LOWELL           N/A     54  46  74 CALM      30.19R
COEUR D`ALENE  CLEAR     54  46  74 CALM      30.15R
MULLAN PASS    CLEAR     55  32  41 W3        30.29R
$$




USA.gov is the U.S. government's official web portal to all federal, state and local government web resources and services.